Back to catalog

COSMOS 1275 DEB

AlivePO
NORAD 17626·DEBRIS·🇷🇺 Russia

Launched Jun 4, 1981 from Plesetsk Cosmodrome

Loading…

Next Passes (next 24 hours)

TLE

FreshSource: Space-Track

Epoch: Sep 11, 2026, 14:08 UTC

1 17626U 81053KV  26254.58898421  .00000460  00000-0  51875-3 0  9992
2 17626  82.8632  90.1747 0140916  22.3874  41.3819 13.64567046 51181

Track COSMOS 1275 DEB in real time with AllMySat

Download on the App Store